ITAMSAT (IO-26)

Last updated on Thu Oct 30 2025 00:03:10 GMT+0000 (Coordinated Universal Time)

1 22826U 93061D 25302.50235201 .00000186 00000+0 87276-4 0 9997 2 22826 98.7153 4.5471 0009633 46.5002 313.6980 14.31270712674313
UTC large
Height (km)
Speed (km/s)
/
Latitude / Longitude
Inclination (degrees)
Orbital Period (minutes)
Azimuth
Elevation
Range (km)
Doppler Factor

Next 0 passes for location: London (51.5072 / 0.1276)

Sorry there are no passes over London.